Regional Weather Roundup
Issued by NWS

Home | Current Version | Previous Version | Text Only | Print | Product List | Glossary On
Versions: 1 2 3 4 5 6 7 8 9 10 11 12 13 14 15 16 17 18 19 20 21 22 23 24 25 26 27 28 29 30 31 32 33 34 35 36 37 38 39 40 41 42 43 44 45 46 47 48 49 50
000
ASCA42 TJSJ 301910
RWRPR
PUERTO RICO/U.S. VIRGIN ISLANDS HOURLY WEATHER ROUNDUP
NATIONAL WEATHER SERVICE SAN JUAN PR
300 PM AST TUE JUN 30 2015

PRZ001-004-302000-
PUERTO RICO

CITY           SKY/WX    TMP DP  RH WIND       PRES   REMARKS
SAN JUAN LMM   CLOUDY    82  75  78 E14       30.09S
AGUADILLA      PTSUNNY   79  73  83 E14G21    30.10F
CEIBA          CLOUDY    82  73  74 E12       30.11
$$

PRZ006-007-302000-
U.S. VIRGIN ISLANDS

CITY           SKY/WX    TMP DP  RH WIND       PRES   REMARKS
CHARLOTTE AMA  MOSUNNY   88  72  58 E13       30.07F HX  94
CHRISTIANSTED  MOSUNNY   88  73  62 E22       30.07F HX  96
$$

HOURLY WEATHER ROUNDUP FOR THE NEWS MEDIA

CITY           SKY/WX    TMP DP  RH WIND       PRES   REMARKS
ORLANDO        MOSUNNY   92  73  53 W14G20    30.06F HX 100
NEW YORK       PTSUNNY   79  64  60 S18       29.94F
NEWARK         PTSUNNY   82  62  50 SE13G23   29.89F
CHICAGO        PTSUNNY   76  60  57 N13       29.81S
HARTFORD       SUNNY     80  61  52 S15       29.98S
BOSTON         MOSUNNY   71  61  70 E12       29.98S
DALLAS         PTSUNNY   93  71  48 W9        29.99F HX 100
PHILADELPHIA   PTSUNNY   85  65  51 S17G25    29.86F
LOS ANGELES    MOSUNNY   75  64  68 W10       29.90S
WASHINGTON DC  PTSUNNY   84  67  56 SW13G18   29.84F


USA.gov is the U.S. government's official web portal to all federal, state and local government web resources and services.